Location: Breezy Point Observatory
(38.9725°N, 81.7133°W)
Time: 15:10:26
(UTC-04:00)

Hubble Space Telescope - Visible Passes

Search period start: 22 May 2017 00:00
Search period end: 01 June 2017 00:00
Orbit: 538 x 541 km, 28.5° (Epoch: 21 May)

Date Brightness Start Highest point End Pass type
(mag) Time Alt. Az. Time Alt. Az. Time Alt. Az.
22 May 2.7 04:32:20 15° S 04:32:20 15° S 04:33:55 10° SSE visible
23 May 3.1 04:23:17 11° SSE 04:23:17 11° SSE 04:23:30 10° SSE visible
28 May 2.9 22:16:05 10° SSW 22:17:02 13° S 22:17:02 13° S visible
29 May 2.5 22:05:39 10° SSW 22:08:03 16° S 22:08:03 16° S visible
30 May 2.4 21:55:18 10° SW 21:58:03 17° S 21:58:52 17° SSE visible
31 May 2.4 21:45:01 10° SW 21:47:54 18° S 21:49:32 15° SSE visible
